Terug naar catalogus

STARLINK-35093

ActiefCommunicatieVLEO
NORAD 65478·PAYLOAD·🇺🇸 United States

Gelanceerd Sep 3, 2025 vanaf Cape Canaveral Space Force Station

Loading…

Volgende Passages (komende 24 uur)

TLE

VersSource: CelesTrak SupGP

Epoch: Sep 14, 2026, 14:14 UTC

1 65478C 25195W   26257.59354167  .00009607  00000+0  30881-3 0  2575
2 65478  53.1579  99.1943 0001275  96.3833  41.6160 15.31709772    15

Volg STARLINK-35093 in realtime met AllMySat

Download on the App Store